TimePST,TemperatureF,Dew PointF,Humidity,Sea Level PressureIn,VisibilityMPH,Wind Direction,Wind SpeedMPH,Gust SpeedMPH,PrecipitationIn,Events,Conditions,WindDirDegrees,DateUTC
12:53 AM,19.9,17.1,89,30.27,10.0,Calm,Calm,-,N/A,,Overcast,0,2013-11-05 08:53:00
1:53 AM,19.0,16.0,88,30.27,10.0,WSW,3.5,-,N/A,,Overcast,240,2013-11-05 09:53:00
2:53 AM,19.0,16.0,88,30.26,10.0,Calm,Calm,-,N/A,,Mostly Cloudy,0,2013-11-05 10:53:00
3:53 AM,19.9,18.0,92,30.28,10.0,West,3.5,-,N/A,,Overcast,260,2013-11-05 11:53:00
4:53 AM,21.9,19.0,89,30.29,10.0,Calm,Calm,-,N/A,,Overcast,0,2013-11-05 12:53:00
5:53 AM,23.0,21.0,92,30.30,10.0,Calm,Calm,-,N/A,,Overcast,0,2013-11-05 13:53:00
6:49 AM,24.8,23.0,93,30.20,8.0,Calm,Calm,-,0.00,Snow,Light Snow,0,2013-11-05 14:49:00
6:53 AM,25.0,23.0,92,30.31,6.0,Calm,Calm,-,0.00,Snow,Light Snow,0,2013-11-05 14:53:00
7:07 AM,25.0,21.9,88,30.20,2.5,Calm,Calm,-,0.00,Snow,Light Snow,0,2013-11-05 15:07:00
7:14 AM,25.0,23.0,92,30.21,7.0,Calm,Calm,-,0.00,Snow,Light Snow,0,2013-11-05 15:14:00
7:44 AM,26.1,23.0,88,30.21,1.8,Calm,Calm,-,0.00,Snow,Light Snow,0,2013-11-05 15:44:00
7:53 AM,27.0,24.1,89,30.33,0.8,Calm,Calm,-,0.00,Snow,Light Snow,0,2013-11-05 15:53:00
8:03 AM,27.0,25.0,92,30.21,1.8,Calm,Calm,-,0.00,Snow,Light Snow,0,2013-11-05 16:03:00
8:06 AM,27.0,25.0,92,30.21,3.0,Calm,Calm,-,0.00,Snow,Light Snow,0,2013-11-05 16:06:00
8:53 AM,28.9,26.1,89,30.32,10.0,East,8.1,-,0.00,,Overcast,100,2013-11-05 16:53:00
9:53 AM,28.9,26.1,89,30.33,10.0,West,5.8,-,N/A,,Overcast,260,2013-11-05 17:53:00
10:53 AM,32.0,27.0,82,30.32,10.0,SSE,4.6,-,N/A,,Overcast,160,2013-11-05 18:53:00
11:53 AM,32.0,26.1,79,30.31,10.0,East,8.1,-,N/A,,Overcast,90,2013-11-05 19:53:00
12:08 PM,32.0,27.0,82,30.21,1.5,SW,5.8,-,0.00,Snow,Light Snow,230,2013-11-05 20:08:00
12:36 PM,30.0,28.0,92,30.21,0.8,SW,3.5,-,0.01,Snow,Light Snow,220,2013-11-05 20:36:00
12:45 PM,30.0,28.9,96,30.21,0.2,Calm,Calm,-,0.03,Fog-Snow,Heavy Snow,0,2013-11-05 20:45:00
12:53 PM,30.0,28.9,96,30.31,0.8,Calm,Calm,-,0.03,Snow,Light Snow,0,2013-11-05 20:53:00
1:01 PM,30.0,28.0,92,30.21,2.0,Calm,Calm,-,0.00,Snow,Light Snow,0,2013-11-05 21:01:00
1:06 PM,30.0,28.0,92,30.20,4.0,Calm,Calm,-,0.00,Snow,Light Snow,0,2013-11-05 21:06:00
1:27 PM,30.9,28.0,89,30.20,9.0,East,10.4,-,0.00,Snow,Light Snow,90,2013-11-05 21:27:00
1:53 PM,30.9,28.0,89,30.31,9.0,East,12.7,-,0.00,,Overcast,90,2013-11-05 21:53:00
2:53 PM,30.9,28.0,89,30.31,10.0,East,8.1,-,0.00,,Overcast,90,2013-11-05 22:53:00
3:45 PM,30.9,28.0,89,30.20,10.0,East,10.4,-,N/A,,Overcast,100,2013-11-05 23:45:00
3:53 PM,30.9,28.0,89,30.30,10.0,East,5.8,-,N/A,,Overcast,100,2013-11-05 23:53:00
4:53 PM,30.9,28.0,89,30.30,10.0,East,6.9,-,N/A,,Overcast,80,2013-11-06 00:53:00
5:53 PM,30.9,28.9,92,30.32,10.0,Calm,Calm,-,N/A,,Overcast,0,2013-11-06 01:53:00
6:53 PM,30.9,28.9,92,30.32,10.0,ESE,5.8,-,N/A,,Overcast,120,2013-11-06 02:53:00
7:53 PM,32.0,28.9,88,30.31,10.0,Calm,Calm,-,N/A,,Overcast,0,2013-11-06 03:53:00
8:53 PM,32.0,28.9,88,30.32,10.0,Calm,Calm,-,N/A,,Overcast,0,2013-11-06 04:53:00
9:53 PM,30.9,30.0,96,30.33,10.0,West,3.5,-,N/A,,Overcast,260,2013-11-06 05:53:00
10:53 PM,30.9,30.0,96,30.34,10.0,WSW,3.5,-,N/A,,Overcast,250,2013-11-06 06:53:00
11:53 PM,30.9,28.9,92,30.35,10.0,Calm,Calm,-,N/A,,Overcast,0,2013-11-06 07:53:00